| time (UTC) | temp F | wind direction | speed MPH | gust MPH | rain 1hr in | rain 24hr in | rain mn in | humidity % | barometer mb |
| 20260510200026 | 69 | 98 | 1.0 | 3.0 | 0.00 | 0.14 | 0.00 | 41 | 1013.2 |
| 20260510195526 | 69 | 0.0 | 3.0 | 0.00 | 0.14 | 0.00 | 39 | 1013.3 | |
| 20260510195104 | 69 | 0.0 | 1.0 | 0.00 | 0.14 | 0.05 | 40 | 1013.2 | |
| 20260510194546 | 69 | 287 | 1.0 | 3.0 | 0.00 | 0.15 | 0.05 | 39 | 1013.4 |
| 20260510194106 | 69 | 162 | 1.0 | 7.0 | 0.00 | 0.15 | 0.05 | 38 | 1013.4 |
| 20260510193526 | 69 | 146 | 1.0 | 3.0 | 0.00 | 0.15 | 0.05 | 40 | 1013.4 |
| 20260510193026 | 69 | 278 | 2.0 | 4.0 | 0.00 | 0.15 | 0.05 | 38 | 1013.4 |
| 20260510192526 | 69 | 281 | 1.0 | 6.0 | 0.00 | 0.15 | 0.05 | 36 | 1013.4 |
| 20260510192046 | 69 | 308 | 1.0 | 5.0 | 0.00 | 0.15 | 0.05 | 37 | 1013.2 |
| 20260510191526 | 69 | 39 | 1.0 | 3.0 | 0.00 | 0.15 | 0.05 | 37 | 1013.4 |
| 20260510191026 | 70 | 167 | 2.0 | 7.0 | 0.00 | 0.15 | 0.05 | 36 | 1013.4 |
| 20260510190546 | 70 | 189 | 2.0 | 7.0 | 0.00 | 0.15 | 0.05 | 36 | 1013.3 |
| 20260510190026 | 71 | 179 | 2.0 | 6.0 | 0.00 | 0.15 | 0.05 | 34 | 1013.5 |
| 20260510185526 | 71 | 186 | 1.0 | 4.0 | 0.00 | 0.15 | 0.05 | 35 | 1013.6 |
| 20260510185026 | 71 | 163 | 3.0 | 7.0 | 0.01 | 0.15 | 0.05 | 35 | 1013.6 |
| 20260510184526 | 71 | 257 | 1.0 | 3.0 | 0.01 | 0.15 | 0.05 | 36 | 1013.6 |
| 20260510184026 | 69 | 149 | 2.0 | 7.0 | 0.01 | 0.15 | 0.05 | 35 | 1013.3 |
| 20260510183526 | 69 | 180 | 2.0 | 5.0 | 0.01 | 0.15 | 0.05 | 35 | 1013.6 |
| 20260510183026 | 70 | 173 | 2.0 | 10.0 | 0.01 | 0.15 | 0.05 | 35 | 1013.5 |
| 20260510182526 | 70 | 232 | 2.0 | 4.0 | 0.01 | 0.16 | 0.05 | 35 | 1013.5 |
| 20260510182026 | 70 | 172 | 2.0 | 5.0 | 0.01 | 0.16 | 0.05 | 34 | 1013.4 |
| 20260510181526 | 70 | 179 | 2.0 | 5.0 | 0.01 | 0.16 | 0.05 | 36 | 1013.4 |
| 20260510181026 | 70 | 214 | 2.0 | 5.0 | 0.01 | 0.16 | 0.05 | 35 | 1013.4 |
| 20260510180526 | 70 | 52 | 1.0 | 4.0 | 0.01 | 0.16 | 0.05 | 36 | 1013.4 |
| 20260510180026 | 70 | 176 | 2.0 | 5.0 | 0.01 | 0.16 | 0.05 | 34 | 1013.4 |
| 20260510175526 | 70 | 177 | 2.0 | 5.0 | 0.01 | 0.16 | 0.05 | 34 | 1013.4 |
| 20260510175026 | 70 | 172 | 3.0 | 5.0 | 0.00 | 0.15 | 0.04 | 35 | 1013.3 |
| 20260510174526 | 70 | 158 | 2.0 | 6.0 | 0.00 | 0.15 | 0.04 | 35 | 1013.3 |
| 20260510174026 | 70 | 169 | 2.0 | 4.0 | 0.00 | 0.15 | 0.04 | 33 | 1013.4 |
| 20260510173526 | 69 | 168 | 2.0 | 4.0 | 0.00 | 0.15 | 0.04 | 33 | 1013.4 |
| 20260510173046 | 69 | 160 | 3.0 | 5.0 | 0.00 | 0.15 | 0.04 | 34 | 1013.7 |
| 20260510172526 | 70 | 172 | 2.0 | 7.0 | 0.00 | 0.16 | 0.04 | 37 | 1013.8 |
| 20260510172026 | 69 | 251 | 2.0 | 7.0 | 0.00 | 0.16 | 0.04 | 36 | 1014.0 |
| 20260510171526 | 69 | 198 | 2.0 | 6.0 | 0.00 | 0.16 | 0.04 | 35 | 1014.0 |
| 20260510171026 | 69 | 177 | 2.0 | 8.0 | 0.00 | 0.16 | 0.04 | 38 | 1014.0 |
| 20260510170526 | 69 | 174 | 2.0 | 8.0 | 0.00 | 0.16 | 0.04 | 34 | 1014.1 |
| 20260510170026 | 69 | 191 | 2.0 | 8.0 | 0.00 | 0.16 | 0.04 | 37 | 1014.3 |
| 20260510165526 | 68 | 181 | 2.0 | 5.0 | 0.00 | 0.16 | 0.04 | 35 | 1014.4 |
| 20260510165026 | 68 | 184 | 2.0 | 4.0 | 0.00 | 0.16 | 0.04 | 33 | 1014.4 |
| 20260510164546 | 68 | 174 | 2.0 | 7.0 | 0.00 | 0.16 | 0.04 | 35 | 1014.4 |
| 20260510164026 | 67 | 164 | 2.0 | 6.0 | 0.00 | 0.17 | 0.04 | 37 | 1014.4 |
| 20260510163526 | 67 | 172 | 3.0 | 9.0 | 0.00 | 0.17 | 0.04 | 36 | 1014.5 |
| 20260510163027 | 66 | 167 | 3.0 | 8.0 | 0.00 | 0.17 | 0.04 | 35 | 1014.3 |
| 20260510162525 | 66 | 167 | 2.0 | 6.0 | 0.00 | 0.17 | 0.04 | 36 | 1014.3 |
| 20260510162026 | 65 | 157 | 2.0 | 3.0 | 0.00 | 0.17 | 0.04 | 36 | 1014.4 |
| 20260510161526 | 65 | 163 | 2.0 | 5.0 | 0.00 | 0.17 | 0.04 | 37 | 1014.5 |
| 20260510161026 | 65 | 176 | 2.0 | 4.0 | 0.00 | 0.17 | 0.04 | 37 | 1014.4 |
| 20260510160525 | 65 | 180 | 2.0 | 5.0 | 0.00 | 0.17 | 0.04 | 36 | 1014.5 |
| 20260510160026 | 65 | 195 | 2.0 | 7.0 | 0.00 | 0.17 | 0.04 | 36 | 1014.5 |
| 20260510155526 | 64 | 185 | 2.0 | 6.0 | 0.00 | 0.17 | 0.04 | 36 | 1014.6 |
| 20260510155026 | 64 | 180 | 2.0 | 5.0 | 0.00 | 0.17 | 0.04 | 37 | 1014.7 |
| 20260510154526 | 64 | 159 | 1.0 | 3.0 | 0.00 | 0.17 | 0.04 | 41 | 1014.6 |
| 20260510154026 | 64 | 172 | 2.0 | 6.0 | 0.00 | 0.17 | 0.04 | 37 | 1014.6 |
| 20260510153526 | 64 | 174 | 2.0 | 6.0 | 0.00 | 0.17 | 0.04 | 36 | 1014.7 |
| 20260510153025 | 65 | 166 | 3.0 | 9.0 | 0.00 | 0.17 | 0.04 | 35 | 1014.7 |
| 20260510152526 | 65 | 176 | 2.0 | 6.0 | 0.00 | 0.17 | 0.04 | 34 | 1014.8 |
| 20260510152026 | 65 | 212 | 2.0 | 5.0 | 0.00 | 0.17 | 0.04 | 39 | 1014.7 |
| 20260510151526 | 64 | 152 | 1.0 | 4.0 | 0.00 | 0.17 | 0.04 | 36 | 1014.6 |
| 20260510151046 | 64 | 177 | 2.0 | 5.0 | 0.00 | 0.17 | 0.04 | 37 | 1014.7 |
| 20260510150526 | 63 | 239 | 2.0 | 5.0 | 0.00 | 0.17 | 0.04 | 35 | 1014.7 |
| 20260510150046 | 63 | 183 | 2.0 | 5.0 | 0.00 | 0.18 | 0.04 | 35 | 1014.6 |
| 20260510145526 | 63 | 252 | 2.0 | 4.0 | 0.00 | 0.18 | 0.04 | 36 | 1014.6 |
| 20260510145026 | 62 | 187 | 1.0 | 4.0 | 0.00 | 0.18 | 0.04 | 38 | 1014.5 |
| 20260510144525 | 61 | 243 | 2.0 | 8.0 | 0.00 | 0.18 | 0.04 | 39 | 1014.4 |
| 20260510144026 | 61 | 260 | 2.0 | 6.0 | 0.00 | 0.18 | 0.04 | 39 | 1014.5 |
| 20260510143526 | 60 | 275 | 1.0 | 3.0 | 0.00 | 0.18 | 0.04 | 41 | 1014.5 |
| 20260510143106 | 60 | 232 | 2.0 | 4.0 | 0.00 | 0.18 | 0.04 | 42 | 1014.6 |
| 20260510142525 | 59 | 228 | 2.0 | 4.0 | 0.00 | 0.18 | 0.04 | 42 | 1014.5 |
| 20260510142026 | 59 | 300 | 2.0 | 3.0 | 0.01 | 0.18 | 0.04 | 43 | 1014.4 |
| 20260510141526 | 59 | 184 | 2.0 | 4.0 | 0.01 | 0.18 | 0.04 | 45 | 1014.4 |
| 20260510141026 | 58 | 156 | 2.0 | 5.0 | 0.01 | 0.18 | 0.04 | 46 | 1014.5 |
| 20260510140525 | 57 | 164 | 1.0 | 4.0 | 0.01 | 0.18 | 0.04 | 47 | 1014.6 |
| 20260510140025 | 57 | 101 | 1.0 | 4.0 | 0.01 | 0.18 | 0.04 | 47 | 1014.5 |
| 20260510135525 | 56 | 312 | 2.0 | 3.0 | 0.01 | 0.18 | 0.04 | 47 | 1014.6 |
| 20260510135026 | 55 | 270 | 1.0 | 3.0 | 0.01 | 0.18 | 0.04 | 47 | 1014.5 |
| 20260510134526 | 55 | 148 | 1.0 | 3.0 | 0.01 | 0.18 | 0.04 | 48 | 1014.5 |
| 20260510134025 | 55 | 124 | 1.0 | 2.0 | 0.01 | 0.18 | 0.04 | 48 | 1014.5 |
| 20260510133526 | 54 | 116 | 1.0 | 3.0 | 0.01 | 0.18 | 0.04 | 48 | 1014.4 |
| 20260510133026 | 54 | 0.0 | 0.0 | 0.01 | 0.19 | 0.04 | 48 | 1014.6 | |
| 20260510132546 | 54 | 0.0 | 0.0 | 0.01 | 0.19 | 0.04 | 48 | 1014.7 | |
| 20260510132026 | 54 | 0.0 | 1.0 | 0.00 | 0.18 | 0.03 | 48 | 1014.7 | |
| 20260510131525 | 54 | 0.0 | 1.0 | 0.00 | 0.18 | 0.03 | 48 | 1014.7 | |
| 20260510131025 | 54 | 262 | 1.0 | 2.0 | 0.00 | 0.18 | 0.03 | 48 | 1014.7 |
| 20260510130526 | 54 | 273 | 1.0 | 2.0 | 0.00 | 0.18 | 0.03 | 48 | 1014.7 |
| 20260510130025 | 54 | 268 | 1.0 | 3.0 | 0.00 | 0.18 | 0.03 | 48 | 1014.8 |
| 20260510125545 | 54 | 176 | 1.0 | 4.0 | 0.00 | 0.18 | 0.03 | 48 | 1014.6 |
| 20260510125025 | 53 | 165 | 2.0 | 4.0 | 0.00 | 0.18 | 0.03 | 48 | 1014.5 |
| 20260510124525 | 53 | 295 | 1.0 | 3.0 | 0.00 | 0.18 | 0.03 | 48 | 1014.7 |
| 20260510124026 | 53 | 245 | 1.0 | 3.0 | 0.00 | 0.19 | 0.03 | 48 | 1014.4 |
| 20260510123526 | 54 | 203 | 1.0 | 2.0 | 0.00 | 0.19 | 0.03 | 48 | 1014.5 |
| 20260510123026 | 54 | 152 | 1.0 | 2.0 | 0.00 | 0.19 | 0.03 | 48 | 1014.5 |
| 20260510122525 | 53 | 130 | 1.0 | 2.0 | 0.00 | 0.19 | 0.03 | 48 | 1014.6 |
| 20260510122025 | 53 | 0.0 | 1.0 | 0.00 | 0.19 | 0.03 | 48 | 1014.4 | |
| 20260510121525 | 53 | 128 | 1.0 | 4.0 | 0.00 | 0.19 | 0.03 | 48 | 1014.4 |
| 20260510121025 | 53 | 0.0 | 0.0 | 0.00 | 0.19 | 0.03 | 48 | 1014.6 | |
| 20260510120525 | 53 | 0.0 | 0.0 | 0.00 | 0.20 | 0.03 | 48 | 1014.6 | |
| 20260510120026 | 53 | 0.0 | 0.0 | 0.00 | 0.20 | 0.03 | 48 | 1014.4 | |
| 20260510115525 | 52 | 0.0 | 0.0 | 0.00 | 0.20 | 0.03 | 48 | 1014.5 | |
| 20260510115025 | 52 | 0.0 | 0.0 | 0.00 | 0.20 | 0.03 | 48 | 1014.6 | |
| 20260510114525 | 52 | 0.0 | 0.0 | 0.00 | 0.20 | 0.03 | 48 | 1014.6 | |
| 20260510114045 | 52 | 0.0 | 0.0 | 0.00 | 0.20 | 0.03 | 48 | 1014.5 | |
| 20260510113527 | 52 | 0.0 | 0.0 | 0.00 | 0.20 | 0.03 | 48 | 1014.5 | |
| 20260510113027 | 52 | 0.0 | 0.0 | 0.00 | 0.20 | 0.03 | 48 | 1014.5 | |
| 20260510112527 | 52 | 0.0 | 0.0 | 0.00 | 0.21 | 0.03 | 48 | 1014.5 | |
| 20260510112027 | 52 | 0.0 | 0.0 | 0.00 | 0.21 | 0.03 | 48 | 1014.5 | |
| 20260510111606 | 52 | 0.0 | 0.0 | 0.00 | 0.21 | 0.03 | 48 | 1014.4 | |
| 20260510111027 | 51 | 0.0 | 0.0 | 0.00 | 0.21 | 0.03 | 48 | 1014.3 | |
| 20260510110527 | 51 | 0.0 | 0.0 | 0.00 | 0.21 | 0.03 | 48 | 1014.4 | |
| 20260510110027 | 51 | 0.0 | 0.0 | 0.00 | 0.22 | 0.03 | 48 | 1014.1 | |
| 20260510105528 | 51 | 0.0 | 0.0 | 0.00 | 0.22 | 0.03 | 48 | 1014.1 | |
| 20260510105027 | 51 | 0.0 | 0.0 | 0.00 | 0.22 | 0.03 | 49 | 1014.1 | |
| 20260510104527 | 51 | 0.0 | 0.0 | 0.00 | 0.22 | 0.03 | 49 | 1013.8 | |
| 20260510104027 | 51 | 0.0 | 0.0 | 0.00 | 0.22 | 0.03 | 48 | 1013.8 | |
| 20260510103527 | 51 | 0.0 | 0.0 | 0.00 | 0.23 | 0.03 | 48 | 1013.8 | |
| 20260510103027 | 51 | 0.0 | 0.0 | 0.00 | 0.23 | 0.03 | 48 | 1013.9 | |
| 20260510102527 | 51 | 0.0 | 0.0 | 0.00 | 0.23 | 0.03 | 48 | 1013.9 | |
| 20260510102047 | 51 | 0.0 | 0.0 | 0.00 | 0.23 | 0.03 | 48 | 1013.5 | |
| 20260510101527 | 50 | 0.0 | 0.0 | 0.00 | 0.24 | 0.03 | 48 | 1013.3 | |
| 20260510101027 | 50 | 0.0 | 0.0 | 0.00 | 0.24 | 0.03 | 48 | 1012.9 | |
| 20260510100527 | 50 | 0.0 | 0.0 | 0.00 | 0.24 | 0.03 | 48 | 1013.0 | |
| 20260510100027 | 50 | 0.0 | 0.0 | 0.00 | 0.24 | 0.03 | 48 | 1013.2 | |
| 20260510095528 | 50 | 0.0 | 0.0 | 0.00 | 0.24 | 0.03 | 48 | 1013.0 | |
| 20260510095027 | 50 | 0.0 | 0.0 | 0.00 | 0.25 | 0.03 | 48 | 1013.1 | |
| 20260510094527 | 50 | 0.0 | 0.0 | 0.01 | 0.25 | 0.03 | 48 | 1013.1 | |
| 20260510094027 | 50 | 0.0 | 0.0 | 0.01 | 0.25 | 0.03 | 48 | 1013.2 | |
| 20260510093527 | 50 | 0.0 | 0.0 | 0.01 | 0.26 | 0.03 | 48 | 1013.3 | |
| 20260510093027 | 50 | 0.0 | 0.0 | 0.01 | 0.26 | 0.03 | 48 | 1013.5 | |
| 20260510092527 | 50 | 0.0 | 0.0 | 0.01 | 0.26 | 0.03 | 48 | 1013.2 | |
| 20260510092107 | 51 | 0.0 | 0.0 | 0.01 | 0.26 | 0.03 | 48 | 1013.2 | |
| 20260510091527 | 51 | 0.0 | 0.0 | 0.01 | 0.27 | 0.03 | 48 | 1013.3 | |
| 20260510091027 | 51 | 0.0 | 0.0 | 0.01 | 0.27 | 0.03 | 48 | 1013.4 | |
| 20260510090527 | 51 | 0.0 | 0.0 | 0.01 | 0.27 | 0.03 | 48 | 1013.2 | |
| 20260510090027 | 51 | 0.0 | 0.0 | 0.01 | 0.27 | 0.03 | 48 | 1013.5 | |
| 20260510085527 | 51 | 0.0 | 0.0 | 0.01 | 0.27 | 0.03 | 49 | 1013.6 | |
| 20260510085047 | 51 | 0.0 | 0.0 | 0.01 | 0.27 | 0.03 | 49 | 1013.6 | |
| 20260510084527 | 51 | 0.0 | 0.0 | 0.00 | 0.26 | 0.02 | 48 | 1013.6 | |
| 20260510084027 | 51 | 0.0 | 0.0 | 0.00 | 0.26 | 0.02 | 48 | 1013.5 | |
| 20260510083527 | 51 | 0.0 | 0.0 | 0.00 | 0.26 | 0.02 | 48 | 1013.4 | |
| 20260510083027 | 51 | 0.0 | 0.0 | 0.00 | 0.26 | 0.02 | 48 | 1013.3 | |
| 20260510082527 | 50 | 0.0 | 0.0 | 0.00 | 0.26 | 0.02 | 48 | 1013.5 | |
| 20260510082027 | 50 | 0.0 | 0.0 | 0.00 | 0.26 | 0.02 | 48 | 1013.5 | |
| 20260510081527 | 50 | 0.0 | 0.0 | 0.00 | 0.26 | 0.02 | 48 | 1013.6 | |
| 20260510081027 | 50 | 0.0 | 0.0 | 0.00 | 0.26 | 0.02 | 48 | 1013.4 | |
| 20260510080527 | 50 | 0.0 | 0.0 | 0.00 | 0.26 | 0.02 | 48 | 1013.4 | |
| 20260510080047 | 50 | 0.0 | 0.0 | 0.00 | 0.26 | 0.02 | 48 | 1013.4 | |
| 20260510075527 | 50 | 0.0 | 0.0 | 0.00 | 0.26 | 0.02 | 49 | 1013.3 | |
| 20260510075027 | 50 | 0.0 | 0.0 | 0.00 | 0.26 | 0.02 | 49 | 1013.3 | |
| 20260510074526 | 50 | 0.0 | 0.0 | 0.00 | 0.26 | 0.02 | 49 | 1013.2 | |
| 20260510074027 | 50 | 0.0 | 0.0 | 0.00 | 0.26 | 0.02 | 48 | 1013.2 | |
| 20260510073527 | 50 | 0.0 | 0.0 | 0.00 | 0.26 | 0.02 | 48 | 1013.2 | |
| 20260510073027 | 50 | 0.0 | 0.0 | 0.00 | 0.26 | 0.02 | 49 | 1013.2 | |
| 20260510072527 | 50 | 0.0 | 0.0 | 0.00 | 0.26 | 0.02 | 48 | 1013.2 | |
| 20260510072026 | 50 | 0.0 | 0.0 | 0.01 | 0.26 | 0.02 | 49 | 1013.2 | |
| 20260510071547 | 50 | 0.0 | 0.0 | 0.01 | 0.26 | 0.02 | 49 | 1013.2 | |
| 20260510071027 | 50 | 0.0 | 0.0 | 0.01 | 0.26 | 0.02 | 49 | 1013.2 | |
| 20260510070527 | 50 | 0.0 | 0.0 | 0.01 | 0.26 | 0.02 | 49 | 1013.3 | |
| 20260510070027 | 50 | 0.0 | 0.0 | 0.01 | 0.26 | 0.02 | 49 | 1013.3 | |
| 20260510065527 | 50 | 0.0 | 0.0 | 0.01 | 0.26 | 0.02 | 49 | 1013.2 | |
| 20260510065027 | 49 | 0.0 | 0.0 | 0.01 | 0.26 | 0.02 | 49 | 1013.3 | |
| 20260510064527 | 49 | 0.0 | 0.0 | 0.01 | 0.26 | 0.02 | 48 | 1013.3 | |
| 20260510064026 | 49 | 0.0 | 0.0 | 0.01 | 0.26 | 0.02 | 48 | 1013.2 | |
| 20260510063527 | 49 | 0.0 | 0.0 | 0.01 | 0.26 | 0.02 | 48 | 1013.2 | |
| 20260510063027 | 49 | 0.0 | 0.0 | 0.01 | 0.26 | 0.02 | 48 | 1013.1 | |
| 20260510062527 | 49 | 0.0 | 0.0 | 0.01 | 0.26 | 0.02 | 48 | 1013.0 | |
| 20260510062026 | 49 | 0.0 | 0.0 | 0.00 | 0.25 | 0.01 | 48 | 1013.0 | |
| 20260510061527 | 49 | 0.0 | 0.0 | 0.00 | 0.25 | 0.01 | 48 | 1012.9 | |
| 20260510061026 | 49 | 0.0 | 0.0 | 0.00 | 0.25 | 0.01 | 48 | 1012.8 | |
| 20260510060547 | 50 | 0.0 | 0.0 | 0.00 | 0.25 | 0.01 | 48 | 1012.8 | |
| 20260510060027 | 50 | 0.0 | 0.0 | 0.00 | 0.25 | 0.01 | 48 | 1012.8 | |
| 20260510055607 | 50 | 0.0 | 0.0 | 0.00 | 0.25 | 0.01 | 48 | 1012.9 | |
| 20260510055027 | 50 | 0.0 | 0.0 | 0.00 | 0.25 | 0.01 | 48 | 1012.9 | |
| 20260510054526 | 50 | 0.0 | 0.0 | 0.00 | 0.25 | 0.01 | 48 | 1013.0 | |
| 20260510054027 | 51 | 0.0 | 0.0 | 0.00 | 0.25 | 0.01 | 48 | 1013.3 | |
| 20260510053607 | 51 | 0.0 | 0.0 | 0.00 | 0.25 | 0.01 | 48 | 1013.5 | |
| 20260510053026 | 51 | 0.0 | 0.0 | 0.00 | 0.25 | 0.01 | 48 | 1013.4 | |
| 20260510052526 | 51 | 0.0 | 0.0 | 0.00 | 0.25 | 0.01 | 48 | 1013.4 | |
| 20260510052047 | 51 | 0.0 | 0.0 | 0.01 | 0.25 | 0.01 | 48 | 1013.3 | |
| 20260510051547 | 51 | 0.0 | 0.0 | 0.01 | 0.25 | 0.01 | 48 | 1013.4 | |
| 20260510051026 | 51 | 0.0 | 0.0 | 0.01 | 0.25 | 0.01 | 48 | 1013.4 | |
| 20260510050526 | 51 | 0.0 | 0.0 | 0.01 | 0.25 | 0.01 | 48 | 1013.2 | |
| 20260510050027 | 51 | 0.0 | 0.0 | 0.01 | 0.25 | 0.01 | 48 | 1013.3 | |
| 20260510045526 | 51 | 0.0 | 0.0 | 0.01 | 0.25 | 0.01 | 48 | 1013.2 | |
| 20260510045026 | 51 | 0.0 | 0.0 | 0.01 | 0.25 | 0.01 | 48 | 1013.4 | |
| 20260510044526 | 51 | 0.0 | 0.0 | 0.01 | 0.25 | 0.01 | 48 | 1013.3 | |
| 20260510044026 | 51 | 0.0 | 0.0 | 0.01 | 0.25 | 0.01 | 48 | 1013.5 | |
| 20260510043527 | 51 | 0.0 | 0.0 | 0.01 | 0.25 | 0.01 | 48 | 1013.5 | |
| 20260510043028 | 51 | 0.0 | 0.0 | 0.01 | 0.25 | 0.01 | 48 | 1013.6 | |
| 20260510042547 | 51 | 0.0 | 0.0 | 0.01 | 0.25 | 0.01 | 48 | 1013.6 | |
| 20260510042026 | 51 | 0.0 | 0.0 | 0.01 | 0.24 | 0.00 | 48 | 1013.4 | |
| 20260510041527 | 51 | 0.0 | 0.0 | 0.01 | 0.24 | 0.00 | 48 | 1013.5 | |
| 20260510041046 | 51 | 0.0 | 0.0 | 0.01 | 0.24 | 0.00 | 48 | 1013.5 | |
| 20260510040527 | 51 | 0.0 | 0.0 | 0.01 | 0.24 | 0.00 | 48 | 1013.5 | |
| 20260510040026 | 51 | 0.0 | 0.0 | 0.01 | 0.24 | 0.24 | 48 | 1013.5 | |
| 20260510035527 | 51 | 0.0 | 0.0 | 0.01 | 0.24 | 0.24 | 48 | 1013.4 | |
| 20260510035027 | 51 | 0.0 | 0.0 | 0.01 | 0.24 | 0.24 | 48 | 1013.4 | |
| 20260510034527 | 51 | 0.0 | 0.0 | 0.01 | 0.24 | 0.24 | 48 | 1013.3 | |
| 20260510034027 | 51 | 0.0 | 0.0 | 0.01 | 0.24 | 0.24 | 48 | 1013.1 | |
| 20260510033607 | 51 | 0.0 | 0.0 | 0.01 | 0.24 | 0.24 | 48 | 1013.1 | |
| 20260510033027 | 51 | 0.0 | 0.0 | 0.01 | 0.24 | 0.24 | 48 | 1013.3 | |
| 20260510032527 | 51 | 0.0 | 0.0 | 0.01 | 0.24 | 0.24 | 48 | 1013.2 | |
| 20260510032027 | 51 | 0.0 | 0.0 | 0.00 | 0.23 | 0.23 | 48 | 1013.1 | |
| 20260510031527 | 51 | 0.0 | 0.0 | 0.01 | 0.23 | 0.23 | 48 | 1012.9 | |
| 20260510031047 | 51 | 0.0 | 0.0 | 0.01 | 0.23 | 0.23 | 48 | 1013.0 | |
| 20260510030526 | 51 | 0.0 | 0.0 | 0.01 | 0.23 | 0.23 | 48 | 1013.0 | |
| 20260510030027 | 51 | 0.0 | 0.0 | 0.01 | 0.23 | 0.23 | 48 | 1013.1 | |
| 20260510025526 | 51 | 0.0 | 0.0 | 0.01 | 0.23 | 0.23 | 48 | 1013.1 | |
| 20260510025026 | 52 | 0.0 | 0.0 | 0.01 | 0.23 | 0.23 | 48 | 1013.1 | |
| 20260510024527 | 52 | 0.0 | 0.0 | 0.01 | 0.23 | 0.23 | 48 | 1013.0 | |
| 20260510024027 | 52 | 0.0 | 0.0 | 0.01 | 0.23 | 0.23 | 48 | 1012.9 | |
| 20260510023526 | 52 | 0.0 | 0.0 | 0.01 | 0.23 | 0.23 | 48 | 1013.1 | |
| 20260510023027 | 52 | 0.0 | 0.0 | 0.01 | 0.23 | 0.23 | 48 | 1013.4 | |
| 20260510022526 | 52 | 0.0 | 0.0 | 0.02 | 0.23 | 0.23 | 48 | 1013.5 | |
| 20260510022026 | 52 | 0.0 | 0.0 | 0.02 | 0.23 | 0.23 | 48 | 1013.5 | |
| 20260510021527 | 52 | 0.0 | 0.0 | 0.01 | 0.22 | 0.22 | 48 | 1013.6 | |
| 20260510021027 | 52 | 0.0 | 0.0 | 0.01 | 0.22 | 0.22 | 48 | 1013.6 | |
| 20260510020526 | 52 | 0.0 | 0.0 | 0.01 | 0.22 | 0.22 | 48 | 1013.5 | |
| 20260510020027 | 52 | 0.0 | 0.0 | 0.01 | 0.22 | 0.22 | 48 | 1013.6 | |
| 20260510015526 | 52 | 0.0 | 0.0 | 0.01 | 0.22 | 0.22 | 48 | 1013.6 | |
| 20260510015026 | 52 | 0.0 | 0.0 | 0.02 | 0.22 | 0.22 | 48 | 1013.6 | |
| 20260510014546 | 52 | 0.0 | 0.0 | 0.02 | 0.22 | 0.22 | 48 | 1013.5 | |
| 20260510014026 | 52 | 0.0 | 0.0 | 0.02 | 0.22 | 0.22 | 48 | 1013.4 | |
| 20260510013527 | 52 | 0.0 | 0.0 | 0.02 | 0.22 | 0.22 | 48 | 1013.3 | |
| 20260510013026 | 52 | 0.0 | 0.0 | 0.02 | 0.22 | 0.22 | 48 | 1013.2 | |
| 20260510012527 | 51 | 0.0 | 0.0 | 0.01 | 0.21 | 0.21 | 48 | 1013.2 | |
| 20260510012026 | 51 | 0.0 | 0.0 | 0.02 | 0.21 | 0.21 | 48 | 1013.1 | |
| 20260510011527 | 51 | 0.0 | 0.0 | 0.02 | 0.21 | 0.21 | 48 | 1013.0 | |
| 20260510011026 | 51 | 0.0 | 0.0 | 0.02 | 0.21 | 0.21 | 48 | 1013.0 | |
| 20260510010526 | 51 | 0.0 | 0.0 | 0.02 | 0.21 | 0.21 | 48 | 1013.1 | |
| 20260510010046 | 51 | 0.0 | 0.0 | 0.02 | 0.21 | 0.21 | 48 | 1013.0 | |
| 20260510005526 | 51 | 0.0 | 0.0 | 0.02 | 0.21 | 0.21 | 48 | 1013.0 | |
| 20260510005026 | 52 | 0.0 | 0.0 | 0.01 | 0.20 | 0.20 | 48 | 1012.9 | |
| 20260510004546 | 52 | 0.0 | 0.0 | 0.02 | 0.20 | 0.20 | 48 | 1012.9 | |
| 20260510004026 | 52 | 0.0 | 0.0 | 0.02 | 0.20 | 0.20 | 48 | 1012.8 | |
| 20260510003547 | 52 | 0.0 | 0.0 | 0.02 | 0.20 | 0.20 | 48 | 1012.8 | |
| 20260510003026 | 52 | 0.0 | 0.0 | 0.02 | 0.20 | 0.20 | 48 | 1012.7 | |
| 20260510002527 | 52 | 0.0 | 0.0 | 0.02 | 0.20 | 0.20 | 48 | 1012.8 | |
| 20260510002026 | 52 | 0.0 | 0.0 | 0.01 | 0.19 | 0.19 | 48 | 1012.7 | |
| 20260510001526 | 52 | 0.0 | 0.0 | 0.01 | 0.19 | 0.19 | 48 | 1012.8 | |
| 20260510001026 | 52 | 0.0 | 0.0 | 0.01 | 0.19 | 0.19 | 48 | 1012.8 | |
| 20260510000526 | 52 | 0.0 | 0.0 | 0.01 | 0.19 | 0.19 | 48 | 1012.9 | |
| 20260510000047 | 52 | 0.0 | 0.0 | 0.01 | 0.19 | 0.19 | 48 | 1012.9 | |
| 20260509235526 | 52 | 0.0 | 0.0 | 0.02 | 0.19 | 0.19 | 48 | 1012.9 | |
| 20260509235026 | 52 | 0.0 | 0.0 | 0.02 | 0.19 | 0.19 | 48 | 1012.9 | |
| 20260509234526 | 52 | 0.0 | 1.0 | 0.01 | 0.18 | 0.18 | 48 | 1012.8 | |
| 20260509234026 | 52 | 158 | 1.0 | 3.0 | 0.01 | 0.18 | 0.18 | 48 | 1012.8 |
| 20260509233526 | 52 | 159 | 1.0 | 5.0 | 0.01 | 0.18 | 0.18 | 48 | 1012.9 |
| 20260509233046 | 52 | 164 | 2.0 | 5.0 | 0.01 | 0.18 | 0.18 | 48 | 1012.8 |
| 20260509232526 | 52 | 165 | 2.0 | 4.0 | 0.01 | 0.18 | 0.18 | 48 | 1012.8 |
| 20260509232027 | 52 | 166 | 2.0 | 4.0 | 0.01 | 0.18 | 0.18 | 48 | 1012.7 |
| 20260509231547 | 52 | 174 | 2.0 | 4.0 | 0.01 | 0.18 | 0.18 | 48 | 1012.7 |
| 20260509231026 | 52 | 163 | 2.0 | 4.0 | 0.01 | 0.18 | 0.18 | 48 | 1012.5 |
| 20260509230526 | 52 | 164 | 3.0 | 5.0 | 0.01 | 0.18 | 0.18 | 48 | 1012.6 |
| 20260509230046 | 52 | 167 | 4.0 | 6.0 | 0.01 | 0.18 | 0.18 | 48 | 1012.6 |
| 20260509225526 | 52 | 162 | 3.0 | 5.0 | 0.00 | 0.17 | 0.17 | 48 | 1012.7 |
| 20260509225027 | 52 | 176 | 2.0 | 4.0 | 0.00 | 0.17 | 0.17 | 48 | 1012.9 |
| 20260509224526 | 52 | 179 | 1.0 | 4.0 | 0.00 | 0.17 | 0.17 | 48 | 1012.9 |
| 20260509224047 | 52 | 167 | 2.0 | 6.0 | 0.00 | 0.17 | 0.17 | 48 | 1012.8 |
| 20260509223526 | 52 | 164 | 2.0 | 5.0 | 0.00 | 0.17 | 0.17 | 48 | 1012.8 |
| 20260509223026 | 52 | 165 | 2.0 | 5.0 | 0.01 | 0.17 | 0.17 | 48 | 1012.7 |
| 20260509222526 | 52 | 168 | 2.0 | 4.0 | 0.01 | 0.17 | 0.17 | 48 | 1012.6 |
| 20260509222026 | 52 | 174 | 2.0 | 5.0 | 0.01 | 0.17 | 0.17 | 48 | 1012.6 |
| 20260509221547 | 52 | 0.0 | 0.0 | 0.01 | 0.17 | 0.17 | 48 | 1012.8 | |
| 20260509221026 | 52 | 0.0 | 0.0 | 0.01 | 0.17 | 0.17 | 48 | 1012.8 | |
| 20260509220526 | 52 | 0.0 | 0.0 | 0.01 | 0.17 | 0.17 | 48 | 1012.8 | |
| 20260509220026 | 52 | 0.0 | 0.0 | 0.01 | 0.17 | 0.17 | 48 | 1012.8 | |
| 20260509215526 | 52 | 0.0 | 0.0 | 0.01 | 0.17 | 0.17 | 48 | 1012.9 | |
| 20260509215026 | 52 | 0.0 | 0.0 | 0.01 | 0.17 | 0.17 | 48 | 1013.0 | |
| 20260509214526 | 52 | 0.0 | 1.0 | 0.01 | 0.17 | 0.17 | 48 | 1013.0 | |
| 20260509214026 | 52 | 5 | 1.0 | 2.0 | 0.01 | 0.17 | 0.17 | 48 | 1013.1 |
| 20260509213526 | 52 | 0.0 | 1.0 | 0.02 | 0.17 | 0.17 | 48 | 1013.0 | |
| 20260509213027 | 52 | 0.0 | 1.0 | 0.01 | 0.16 | 0.16 | 48 | 1013.1 | |
| 20260509212526 | 52 | 0.0 | 0.0 | 0.01 | 0.16 | 0.16 | 48 | 1013.2 | |
| 20260509212026 | 52 | 0.0 | 0.0 | 0.01 | 0.16 | 0.16 | 48 | 1013.0 | |
| 20260509211546 | 52 | 0.0 | 1.0 | 0.01 | 0.16 | 0.16 | 48 | 1013.1 | |
| 20260509211106 | 52 | 0.0 | 1.0 | 0.01 | 0.16 | 0.16 | 48 | 1013.0 | |
| 20260509210526 | 52 | 0.0 | 0.0 | 0.01 | 0.16 | 0.16 | 48 | 1013.1 | |
| 20260509210026 | 52 | 0.0 | 1.0 | 0.01 | 0.16 | 0.16 | 48 | 1013.2 | |
| 20260509205526 | 52 | 0.0 | 1.0 | 0.01 | 0.16 | 0.16 | 48 | 1013.3 | |
| 20260509205026 | 51 | 5 | 1.0 | 2.0 | 0.01 | 0.16 | 0.16 | 47 | 1013.4 |
| 20260509204526 | 51 | 0.0 | 0.0 | 0.02 | 0.16 | 0.16 | 48 | 1013.4 | |
| 20260509204026 | 51 | 0.0 | 0.0 | 0.02 | 0.16 | 0.16 | 47 | 1013.6 | |
| 20260509203606 | 51 | 0.0 | 1.0 | 0.01 | 0.15 | 0.15 | 47 | 1013.6 | |
| 20260509203026 | 51 | 0 | 1.0 | 2.0 | 0.01 | 0.15 | 0.15 | 47 | 1013.6 |
| 20260509202525 | 51 | 0.0 | 2.0 | 0.01 | 0.15 | 0.15 | 47 | 1013.6 | |
| 20260509202026 | 51 | 0 | 1.0 | 3.0 | 0.01 | 0.15 | 0.15 | 47 | 1013.6 |
| 20260509201526 | 51 | 0.0 | 0.0 | 0.01 | 0.15 | 0.15 | 47 | 1013.8 | |
| 20260509201026 | 51 | 0.0 | 1.0 | 0.01 | 0.15 | 0.15 | 47 | 1013.8 | |
| 20260509200526 | 52 | 0.0 | 1.0 | 0.01 | 0.15 | 0.15 | 47 | 1013.6 |